IW5EFR Vecchia di Pontedera IT current weather conditions

sailwx.info

Wind from 118 at 9 knots gusting 11

Air temperature 6.1° C
Dewpoint 0.0° C

Last reported at 2020-Jan-21 05:00 UTC.
Time now 2020-Jan-21 06:11 UTC

Location: N 43°37' E 010°38'.
View on Google Maps.

See reports from other nearby stations

  
Tides and Currents Weather Stations Pressure Air Temp Water Temp Dewpoint Dewpoint Depression Visibility Wind Speed Wind Dir Waves Ship Positions
date/time (UTC)wind fromknots sea level pressurealtimeterstation pressurevisibilityair tempwater tempwave heightnotes
2020-Jan-21 05:00 118 9 gusting 11 6.1
2020-Jan-21 04:50 105 4 gusting 12 6.1
2020-Jan-21 04:45 055 1 gusting 12 6.1
2020-Jan-21 04:40 071 2 gusting 13 6.1
2020-Jan-21 04:35 098 1 gusting 13 6.1
2020-Jan-21 04:30 085 6.1
2020-Jan-21 04:25 097 6 gusting 9 6.7
2020-Jan-21 04:20 102 3 gusting 10 6.1
2020-Jan-21 04:15 082 0 gusting 10 6.1
2020-Jan-21 04:10 106 1 gusting 8 6.7
2020-Jan-21 04:05 100 2 gusting 8 6.7
2020-Jan-21 04:00 115 1 gusting 9 6.7
2020-Jan-21 03:55 089 0 gusting 9 6.7
2020-Jan-21 03:50 096 2 gusting 12 6.7
2020-Jan-21 03:45 097 6 gusting 12 6.7
2020-Jan-21 03:40 088 1 gusting 13 6.7
2020-Jan-21 03:35 045 2 gusting 13 6.7
2020-Jan-21 03:30 104 2 gusting 9 6.7
2020-Jan-21 03:25 083 2 gusting 9 6.7
2020-Jan-21 03:20 096 2 gusting 13 6.7
2020-Jan-21 03:15 081 2 gusting 13 6.7
2020-Jan-21 03:10 105 7 gusting 13 6.7
2020-Jan-21 03:05 064 0 gusting 13 6.7
2020-Jan-21 03:00 355 2 gusting 15 7.2
2020-Jan-21 02:55 086 2 gusting 15 7.2
2020-Jan-21 02:50 094 5 gusting 11 7.2
2020-Jan-21 02:45 061 1 gusting 11 6.7
2020-Jan-21 02:40 096 5 gusting 15 7.2
2020-Jan-21 02:35 105 3 gusting 15 7.2
2020-Jan-21 02:30 088 4 gusting 15 7.2
2020-Jan-21 02:25 092 4 gusting 15 7.2
2020-Jan-21 02:20 070 1 gusting 19 7.2
2020-Jan-21 02:15 082 11 gusting 19 7.2
2020-Jan-21 02:10 038 4 gusting 13 7.2
2020-Jan-21 02:05 111 2 gusting 13 7.2
2020-Jan-21 02:00 062 0 gusting 13 7.2
2020-Jan-21 01:55 090 12 gusting 13 7.2
2020-Jan-21 01:50 113 10 gusting 11 7.2
2020-Jan-21 01:45 084 6 gusting 11 7.2
2020-Jan-21 01:40 117 4 gusting 13 7.2
2020-Jan-21 01:35 016 6 gusting 13 7.2
2020-Jan-21 01:30 058 2 gusting 14 7.2
2020-Jan-21 01:25 099 8 gusting 14 7.2
2020-Jan-21 01:20 105 13 gusting 18 7.2
2020-Jan-21 01:15 109 4 gusting 18 7.2
2020-Jan-21 01:10 116 10 gusting 16 7.2
2020-Jan-21 01:05 105 2 gusting 16 7.2
2020-Jan-21 01:00 100 2 gusting 13 7.8
2020-Jan-21 00:55 071 2 gusting 13 7.8
2020-Jan-21 00:50 059 2 gusting 13 7.8
2020-Jan-21 00:45 086 7.8
2020-Jan-21 00:40 107 7 gusting 19 7.8
2020-Jan-21 00:35 101 1 gusting 19 7.8
2020-Jan-21 00:30 088 12 gusting 16 7.8
2020-Jan-21 00:25 078 1 gusting 16 7.8
2020-Jan-21 00:20 087 2 gusting 19 7.8
2020-Jan-21 00:15 085 4 gusting 19 7.8
2020-Jan-21 00:10 096 2 gusting 19 7.8
2020-Jan-21 00:05 096 6 gusting 19 7.8
2020-Jan-21 00:00 103 13 gusting 15 7.8
2020-Jan-20 23:55 081 2 gusting 15 7.8
2020-Jan-20 23:50 121 4 gusting 16 7.8
2020-Jan-20 23:45 092 2 gusting 16 7.8
2020-Jan-20 23:40 119 6 gusting 13 7.8
2020-Jan-20 23:35 094 2 gusting 13 7.8
2020-Jan-20 23:30 046 3 gusting 15 7.8
2020-Jan-20 23:25 062 2 gusting 15 7.8
2020-Jan-20 23:20 065 2 gusting 15 7.8
2020-Jan-20 23:15 079 4 gusting 15 7.8
2020-Jan-20 23:10 074 9 gusting 22 7.8
2020-Jan-20 23:05 020 5 gusting 22 7.8
2020-Jan-20 23:00 098 1 gusting 11 7.8
2020-Jan-20 22:55 029 3 gusting 11 7.8
2020-Jan-20 22:50 088 7 gusting 19 7.8
2020-Jan-20 22:45 009 2 gusting 19 7.8
2020-Jan-20 22:40 131 4 gusting 9 7.8
2020-Jan-20 22:35 069 2 gusting 9 7.8
2020-Jan-20 22:30 094 6 gusting 12 7.8
2020-Jan-20 22:25 102 2 gusting 12 7.8
2020-Jan-20 22:20 083 1 gusting 11 7.8
2020-Jan-20 22:15 087 6 gusting 11 7.8
2020-Jan-20 22:10 069 1 gusting 12 7.8
2020-Jan-20 22:05 081 2 gusting 12 7.8
2020-Jan-20 22:00 092 1 gusting 11 7.8
2020-Jan-20 21:55 094 4 gusting 11 7.8
2020-Jan-20 21:50 077 1 gusting 12 7.8
2020-Jan-20 21:45 011 3 gusting 12 7.8
2020-Jan-20 21:40 051 3 gusting 9 7.8
2020-Jan-20 21:35 062 2 gusting 9 7.8
2020-Jan-20 21:30 068 2 gusting 14 7.8
2020-Jan-20 21:25 147 1 gusting 14 7.8
2020-Jan-20 21:20 083 2 gusting 13 7.8
2020-Jan-20 21:15 085 7 gusting 13 7.8
2020-Jan-20 21:10 065 3 gusting 16 7.8
2020-Jan-20 21:05 036 3 gusting 16 7.8
2020-Jan-20 21:00 061 3 gusting 12 7.8
2020-Jan-20 20:55 059 1 gusting 12 7.8
2020-Jan-20 20:50 082 1 gusting 9 7.8
2020-Jan-20 20:45 099 1 gusting 9 7.8
2020-Jan-20 20:40 103 1 gusting 14 7.8
2020-Jan-20 20:35 090 1 gusting 14 7.8
2020-Jan-20 20:30 078 4 gusting 8 7.8
2020-Jan-20 20:25 102 6 gusting 8 7.8
2020-Jan-20 20:20 060 3 gusting 11 7.8
2020-Jan-20 20:15 088 5 gusting 11 7.8
2020-Jan-20 20:10 094 2 gusting 12 7.8
2020-Jan-20 20:05 107 8 gusting 12 7.8
2020-Jan-20 20:00 117 2 gusting 12 7.8
2020-Jan-20 19:55 056 4 gusting 12 7.8
2020-Jan-20 19:50 094 2 gusting 19 7.8
2020-Jan-20 19:45 092 2 gusting 19 7.8
2020-Jan-20 19:40 103 1 gusting 11 7.8
2020-Jan-20 19:35 080 2 gusting 11 7.8
2020-Jan-20 19:30 053 1 gusting 13 7.8
2020-Jan-20 19:25 015 3 gusting 13 7.8
2020-Jan-20 19:20 110 3 gusting 10 7.8
2020-Jan-20 19:15 074 2 gusting 10 7.8
2020-Jan-20 19:10 095 2 gusting 13 7.8
2020-Jan-20 19:05 106 4 gusting 13 7.8
2020-Jan-20 19:00 111 4 gusting 8 7.8
2020-Jan-20 18:55 114 7 gusting 8 7.8
2020-Jan-20 18:50 069 2 gusting 10 7.8
2020-Jan-20 18:45 106 2 gusting 10 7.8
2020-Jan-20 18:40 094 2 gusting 11 7.8
2020-Jan-20 18:35 092 2 gusting 11 7.8
2020-Jan-20 18:30 081 4 gusting 9 7.8
2020-Jan-20 18:25 095 2 gusting 9 7.8
2020-Jan-20 18:20 094 1 gusting 8 7.8
2020-Jan-20 18:15 123 6 gusting 8 7.8
2020-Jan-20 18:10 112 2 gusting 13 7.8
2020-Jan-20 18:05 097 2 gusting 13 7.8
2020-Jan-20 18:00 094 5 gusting 11 7.8
2020-Jan-20 17:55 086 2 gusting 11 7.8
2020-Jan-20 17:50 108 0 gusting 13 7.8
2020-Jan-20 17:45 104 2 gusting 13 7.8
2020-Jan-20 17:40 085 1 gusting 15 7.8
2020-Jan-20 17:35 032 2 gusting 15 7.8
2020-Jan-20 17:30 089 5 gusting 18 7.8
2020-Jan-20 17:25 107 1 gusting 18 7.8
2020-Jan-20 17:20 093 4 gusting 13 7.8
2020-Jan-20 17:15 100 11 gusting 13 7.8
2020-Jan-20 17:10 111 4 gusting 17 7.8
2020-Jan-20 17:05 097 4 gusting 17 7.8
2020-Jan-20 17:00 075 0 gusting 13 8.3
2020-Jan-20 16:55 078 3 gusting 13 8.3
2020-Jan-20 16:50 078 9 gusting 11 8.3
2020-Jan-20 16:45 037 1 gusting 11 8.3
2020-Jan-20 16:40 074 2 gusting 6 8.3
2020-Jan-20 16:35 070 2 gusting 6 8.3
2020-Jan-20 16:30 078 2 gusting 15 8.3
2020-Jan-20 16:25 005 5 gusting 15 8.3
2020-Jan-20 16:20 093 2 gusting 8 8.3
2020-Jan-20 16:15 091 6 gusting 8 8.3
2020-Jan-20 16:10 041 2 gusting 6 8.3
2020-Jan-20 16:05 036 2 gusting 6 8.3
2020-Jan-20 16:00 034 3 gusting 16 8.3
2020-Jan-20 15:55 046 1 gusting 16 8.9
2020-Jan-20 15:50 030 2 gusting 13 8.9
2020-Jan-20 15:45 105 8 gusting 13 8.9
2020-Jan-20 15:40 084 2 gusting 19 8.9
2020-Jan-20 15:35 105 2 gusting 19 8.9
2020-Jan-20 15:30 094 4 gusting 15 8.9
2020-Jan-20 15:25 071 9 gusting 15 8.9
2020-Jan-20 15:20 098 7 gusting 17 8.9
2020-Jan-20 15:15 099 5 gusting 17 8.9
2020-Jan-20 15:10 082 1 gusting 15 8.9
2020-Jan-20 15:05 121 4 gusting 15 8.9
2020-Jan-20 15:00 039 2 gusting 20 8.9
2020-Jan-20 14:55 060 2 gusting 20 8.9
2020-Jan-20 14:50 113 12 gusting 18 9.4
2020-Jan-20 14:45 089 2 gusting 18 9.4
2020-Jan-20 14:40 080 7 gusting 22 9.4
2020-Jan-20 14:35 103 8 gusting 22 9.4
2020-Jan-20 14:30 110 1 gusting 17 9.4
2020-Jan-20 14:25 074 2 gusting 17 10.0
2020-Jan-20 14:20 091 1 gusting 19 10.0
2020-Jan-20 14:15 053 10 gusting 19 10.0
2020-Jan-20 14:10 086 2 gusting 14 10.0
2020-Jan-20 14:05 084 2 gusting 14 10.0
2020-Jan-20 14:00 040 2 gusting 21 10.0
2020-Jan-20 13:55 080 6 gusting 21 10.0
2020-Jan-20 13:50 095 2 gusting 19 10.6
2020-Jan-20 13:45 054 3 gusting 19 10.6
2020-Jan-20 13:40 093 6 gusting 16 10.6
2020-Jan-20 13:35 101 6 gusting 16 10.6
2020-Jan-20 13:30 053 0 gusting 17 10.6
2020-Jan-20 13:25 096 6 gusting 17 10.6
2020-Jan-20 13:20 115 7 gusting 21 10.6
2020-Jan-20 13:15 048 3 gusting 21 10.6
2020-Jan-20 13:10 097 6 gusting 14 10.6
2020-Jan-20 13:05 063 3 gusting 14 10.6
2020-Jan-20 13:00 063 1 gusting 13 10.0
2020-Jan-20 12:55 102 9 gusting 13 10.0
2020-Jan-20 12:50 054 2 gusting 14 10.0
2020-Jan-20 12:40 092 1 gusting 15 10.0
2020-Jan-20 12:35 024 3 gusting 15 10.0
2020-Jan-20 12:30 026 1 gusting 20 10.0
2020-Jan-20 12:25 019 12 gusting 20 10.6
2020-Jan-20 12:20 092 2 gusting 19 10.6
2020-Jan-20 12:15 092 7 gusting 19 10.0
2020-Jan-20 12:10 126 5 gusting 13 10.0
2020-Jan-20 12:00 124 2 gusting 13 10.6
2020-Jan-20 11:55 075 2 gusting 13 10.6
2020-Jan-20 11:50 077 4 gusting 15 10.6
2020-Jan-20 11:45 067 8 gusting 15 10.6
2020-Jan-20 11:40 077 6 gusting 13 10.6
2020-Jan-20 11:35 082 5 gusting 13 10.6
2020-Jan-20 11:30 085 5 gusting 13 10.0
2020-Jan-20 11:25 042 3 gusting 13 10.0
2020-Jan-20 11:20 049 3 gusting 17 10.0
2020-Jan-20 11:15 060 4 gusting 17 10.0
2020-Jan-20 11:10 085 2 gusting 26 10.6
2020-Jan-20 11:05 097 7 gusting 26 10.0
2020-Jan-20 11:00 074 13 gusting 13 10.0
2020-Jan-20 10:55 051 6 gusting 13 10.0
2020-Jan-20 10:50 053 3 gusting 19 10.0
2020-Jan-20 10:45 034 3 gusting 19 10.0
2020-Jan-20 10:40 058 4 gusting 17 9.4
2020-Jan-20 10:35 055 2 gusting 17 9.4
2020-Jan-20 10:30 024 4 gusting 17 9.4
2020-Jan-20 10:25 050 6 gusting 17 9.4
2020-Jan-20 10:20 094 6 gusting 15 10.0
2020-Jan-20 10:15 028 8 gusting 15 10.0
2020-Jan-20 10:10 057 3 gusting 20 10.0
2020-Jan-20 10:05 023 4 gusting 20 10.0
2020-Jan-20 10:00 092 4 gusting 18 10.0
2020-Jan-20 09:55 059 4 gusting 18 9.4
2020-Jan-20 09:50 092 6 gusting 13 9.4
2020-Jan-20 09:45 041 5 gusting 13 9.4
2020-Jan-20 09:40 036 5 gusting 21 9.4
2020-Jan-20 09:35 038 3 gusting 21 9.4
2020-Jan-20 09:30 013 4 gusting 18 9.4
2020-Jan-20 09:25 005 12 gusting 18 9.4
2020-Jan-20 09:20 355 4 gusting 16 9.4
2020-Jan-20 09:15 343 13 gusting 16 9.4
2020-Jan-20 09:10 126 4 gusting 15 9.4
2020-Jan-20 09:05 074 4 gusting 15 9.4
2020-Jan-20 09:00 127 4 gusting 12 9.4
2020-Jan-20 08:55 012 5 gusting 12 9.4
2020-Jan-20 08:50 355 3 gusting 13 9.4
2020-Jan-20 08:45 057 0 gusting 13 9.4
2020-Jan-20 08:40 087 5 gusting 13 8.9
2020-Jan-20 08:35 041 4 gusting 13 8.9
2020-Jan-20 08:30 113 2 gusting 11 8.9
2020-Jan-20 08:25 091 5 gusting 11 8.9
2020-Jan-20 08:20 026 3 gusting 9 8.9
2020-Jan-20 08:15 355 3 gusting 9 8.9
2020-Jan-20 08:10 017 4 gusting 10 8.9
2020-Jan-20 08:05 009 3 gusting 10 8.3
2020-Jan-20 08:00 059 0 gusting 10 8.3
2020-Jan-20 07:55 042 1 gusting 10 8.3
2020-Jan-20 07:50 071 7 gusting 13 8.3
2020-Jan-20 07:45 084 2 gusting 13 7.8
2020-Jan-20 07:40 050 1 gusting 9 7.8
2020-Jan-20 07:35 083 1 gusting 9 7.8
2020-Jan-20 07:30 061 1 gusting 7 7.8
2020-Jan-20 07:25 064 0 gusting 7 7.2
2020-Jan-20 07:20 036 2 gusting 13 7.2
2020-Jan-20 07:15 097 0 gusting 13 7.8
2020-Jan-20 07:10 102 0 gusting 12 7.8
2020-Jan-20 07:05 091 6 gusting 12 7.8
2020-Jan-20 07:00 100 1 gusting 9 7.8
2020-Jan-20 06:55 065 2 gusting 9 7.8
2020-Jan-20 06:50 101 7.8
2020-Jan-20 06:45 078 1 gusting 16 7.8
2020-Jan-20 06:40 057 2 gusting 13 7.8
2020-Jan-20 06:35 107 4 gusting 13 7.8
2020-Jan-20 06:30 059 1 gusting 11 7.8
2020-Jan-20 06:25 127 6 gusting 11 7.8
2020-Jan-20 06:20 115 6 gusting 13 7.8
2020-Jan-20 06:15 052 3 gusting 13 7.8
2020-Jan-20 06:10 024 2 gusting 11 7.8
2020-Jan-20 06:05 046 3 gusting 11 7.8
2020-Jan-20 06:00 026 3 gusting 9 7.8
2020-Jan-20 05:55 009 4 gusting 9 7.8
2020-Jan-20 05:50 045 4 gusting 10 7.8
2020-Jan-20 05:45 026 3 gusting 10 7.8
2020-Jan-20 05:40 087 2 gusting 12 7.8
2020-Jan-20 05:35 051 2 gusting 12 7.8
2020-Jan-20 05:30 016 2 gusting 7 7.8
2020-Jan-20 05:25 038 6 gusting 7 7.8
2020-Jan-20 05:20 080 4 gusting 12 7.8
2020-Jan-20 05:15 061 2 gusting 12 7.8
2020-Jan-20 05:10 055 3 gusting 7 7.8
2020-Jan-20 05:05 005 5 gusting 7 7.8
2020-Jan-20 05:00 024 3 gusting 6 7.8
2020-Jan-20 04:55 017 4 gusting 6 7.8
2020-Jan-20 04:50 026 1 gusting 7 7.8
2020-Jan-20 04:45 057 1 gusting 7 7.8
2020-Jan-20 04:40 056 2 gusting 6 7.8
2020-Jan-20 04:35 016 5 gusting 6 7.8
2020-Jan-20 04:30 009 2 gusting 7 7.8
2020-Jan-20 04:25 081 1 gusting 7 7.8
2020-Jan-20 04:20 082 4 gusting 8 7.8
2020-Jan-20 04:15 051 1 gusting 8 7.8
2020-Jan-20 04:10 068 1 gusting 10 7.8
2020-Jan-20 04:05 059 0 gusting 10 7.8
2020-Jan-20 04:00 092 1 gusting 7 7.8
2020-Jan-20 03:55 103 9 gusting 7 7.8
2020-Jan-20 03:50 130 2 gusting 9 7.8
2020-Jan-20 03:45 069 1 gusting 9 7.8
2020-Jan-20 03:40 105 2 gusting 11 7.8
2020-Jan-20 03:35 142 4 gusting 11 8.3
2020-Jan-20 03:30 071 0 gusting 9 8.3
2020-Jan-20 03:25 125 10 gusting 9 7.8
2020-Jan-20 03:20 015 4 gusting 11 7.8
2020-Jan-20 03:15 075 2 gusting 11 7.8
2020-Jan-20 03:10 044 0 gusting 12 7.8
2020-Jan-20 03:05 051 2 gusting 12 8.3
2020-Jan-20 03:00 076 2 gusting 13 8.3
2020-Jan-20 02:55 083 2 gusting 13 8.3
2020-Jan-20 02:50 067 2 gusting 14 8.3
2020-Jan-20 02:45 079 0 gusting 14 8.3
2020-Jan-20 02:40 069 2 gusting 13 8.3
2020-Jan-20 02:35 096 2 gusting 13 8.3
2020-Jan-20 02:30 049 2 gusting 15 8.3
2020-Jan-20 02:25 051 2 gusting 15 8.3
2020-Jan-20 02:20 034 5 gusting 15 8.3
2020-Jan-20 02:15 106 6 gusting 15 8.3
2020-Jan-20 02:10 059 4 gusting 9 8.3
2020-Jan-20 02:05 085 1 gusting 9 8.3
2020-Jan-20 02:00 042 4 gusting 10 8.3
2020-Jan-20 01:55 348 4 gusting 10 8.3
2020-Jan-20 01:50 022 2 gusting 7 8.3
2020-Jan-20 01:45 054 2 gusting 7 8.3
2020-Jan-20 01:40 089 2 gusting 7 8.3
2020-Jan-20 01:35 070 1 gusting 7 8.3
2020-Jan-20 01:30 103 7 gusting 9 8.3
2020-Jan-20 01:25 022 5 gusting 9 8.3
2020-Jan-20 01:20 015 3 gusting 10 8.9
2020-Jan-20 01:15 103 3 gusting 10 8.9
2020-Jan-20 01:10 053 0 gusting 6 8.9
2020-Jan-20 01:05 069 0 gusting 6 8.3
2020-Jan-20 01:00 068 2 gusting 10 8.9
2020-Jan-20 00:55 070 6 gusting 10 8.9
2020-Jan-20 00:50 131 1 gusting 9 8.9
2020-Jan-20 00:45 067 2 gusting 9 8.9
2020-Jan-20 00:40 066 3 gusting 8 8.9
2020-Jan-20 00:35 032 2 gusting 8 8.9
2020-Jan-20 00:30 069 2 gusting 10 8.9
2020-Jan-20 00:25 051 2 gusting 10 8.9
2020-Jan-20 00:20 046 4 gusting 9 8.9
2020-Jan-20 00:15 038 2 gusting 9 8.9
2020-Jan-20 00:10 019 5 gusting 11 8.9
2020-Jan-20 00:05 027 3 gusting 11 8.9
2020-Jan-20 00:00 055 3 gusting 6 8.9
2020-Jan-19 23:55 140 3 gusting 6 8.9
2020-Jan-19 23:50 071 3 gusting 11 8.9
2020-Jan-19 23:45 108 3 gusting 11 8.9
2020-Jan-19 23:40 005 5 gusting 9 8.9
2020-Jan-19 23:35 057 3 gusting 9 8.9
2020-Jan-19 23:30 080 1 gusting 8 8.9
2020-Jan-19 23:25 085 1 gusting 8 8.9
2020-Jan-19 23:20 017 3 gusting 13 8.9
2020-Jan-19 23:15 055 2 gusting 13 8.9
2020-Jan-19 23:10 023 5 gusting 7 8.9
2020-Jan-19 23:05 081 0 gusting 7 8.9
2020-Jan-19 23:00 097 5 gusting 13 8.9
2020-Jan-19 22:55 069 1 gusting 13 8.9
2020-Jan-19 22:50 113 0 gusting 8 8.9
2020-Jan-19 22:45 054 3 gusting 8 8.9
2020-Jan-19 22:40 084 1 gusting 12 8.9
2020-Jan-19 22:35 054 0 gusting 12 8.9
2020-Jan-19 22:30 044 8.9
2020-Jan-19 22:25 045 1 gusting 7 8.9
2020-Jan-19 22:20 136 1 gusting 9 8.9
2020-Jan-19 22:15 033 0 gusting 9 8.9
2020-Jan-19 22:10 036 1 gusting 11 8.9
2020-Jan-19 22:05 045 1 gusting 11 8.9
2020-Jan-19 22:00 041 5 gusting 8 8.9
2020-Jan-19 21:55 064 3 gusting 8 8.9
2020-Jan-19 21:50 088 0 gusting 9 8.9
2020-Jan-19 21:45 053 3 gusting 9 8.9
2020-Jan-19 21:40 099 2 gusting 6 8.9
2020-Jan-19 21:35 031 0 gusting 6 8.9
2020-Jan-19 21:30 079 0 gusting 11 8.9
2020-Jan-19 21:25 059 0 gusting 11 8.9
2020-Jan-19 21:20 059 8.9
2020-Jan-19 21:15 060 0 gusting 6 8.9
2020-Jan-19 21:10 059 1 gusting 8 8.9
2020-Jan-19 21:05 061 2 gusting 8 8.9
2020-Jan-19 21:00 076 3 gusting 14 8.9
2020-Jan-19 20:55 059 2 gusting 14 8.9
2020-Jan-19 20:50 112 2 gusting 7 8.9
2020-Jan-19 20:45 067 1 gusting 7 8.9
2020-Jan-19 20:40 060 1 gusting 7 8.9
2020-Jan-19 20:35 090 1 gusting 7 8.9
2020-Jan-19 20:30 092 2 gusting 8 8.9
2020-Jan-19 20:25 055 3 gusting 8 8.9
2020-Jan-19 20:20 053 2 gusting 11 8.9
2020-Jan-19 20:15 022 2 gusting 11 8.9
2020-Jan-19 20:10 031 2 gusting 11 8.9
2020-Jan-19 20:05 091 5 gusting 11 8.9
2020-Jan-19 20:00 032 0 gusting 6 8.9
2020-Jan-19 19:55 076 1 gusting 6 8.9
2020-Jan-19 19:50 113 2 gusting 9 8.9
2020-Jan-19 19:45 044 0 gusting 9 8.9
2020-Jan-19 19:40 042 0 gusting 7 8.9
2020-Jan-19 19:35 070 2 gusting 7 8.9
2020-Jan-19 19:30 090 4 gusting 10 8.9
2020-Jan-19 19:25 125 2 gusting 10 8.9
2020-Jan-19 19:20 091 6 gusting 7 8.9
2020-Jan-19 19:15 122 2 gusting 7 8.9
2020-Jan-19 19:10 015 0 gusting 8 8.9
2020-Jan-19 19:05 101 1 gusting 8 8.9
2020-Jan-19 19:00 057 2 gusting 7 8.9
2020-Jan-19 18:55 050 2 gusting 7 8.9
2020-Jan-19 18:50 038 1 gusting 6 8.9
2020-Jan-19 18:45 018 3 gusting 6 8.9
2020-Jan-19 18:40 033 1 gusting 6 8.9
2020-Jan-19 18:35 024 2 gusting 6 8.9
2020-Jan-19 18:30 030 1 gusting 8 8.9
2020-Jan-19 18:25 090 1 gusting 8 8.9
2020-Jan-19 18:20 107 2 gusting 11 8.9
2020-Jan-19 18:15 087 4 gusting 11 8.9
2020-Jan-19 18:10 081 0 gusting 6 8.9
2020-Jan-19 18:05 037 1 gusting 6 8.9
2020-Jan-19 18:00 069 2 gusting 6 8.9
2020-Jan-19 17:55 036 1 gusting 6 8.9
2020-Jan-19 17:50 081 0 gusting 6 8.9
2020-Jan-19 17:45 041 2 gusting 6 8.9
2020-Jan-19 17:40 082 0 gusting 9 8.9
2020-Jan-19 17:35 072 1 gusting 9 8.9
2020-Jan-19 17:30 061 2 gusting 8 8.9
2020-Jan-19 17:25 043 1 gusting 8 8.9
2020-Jan-19 17:20 051 3 gusting 8 8.9
2020-Jan-19 17:15 010 5 gusting 8 8.9
2020-Jan-19 17:10 040 1 gusting 11 8.9
2020-Jan-19 17:05 051 0 gusting 11 8.9
2020-Jan-19 17:00 036 1 gusting 9 8.9
2020-Jan-19 16:55 093 1 gusting 9 8.9
2020-Jan-19 16:50 021 1 gusting 11 8.9
2020-Jan-19 16:45 039 0 gusting 11 8.9
2020-Jan-19 16:40 046 1 gusting 10 8.9
2020-Jan-19 16:35 045 1 gusting 10 8.9
2020-Jan-19 16:30 074 1 gusting 8 8.9
2020-Jan-19 16:25 048 1 gusting 8 9.4
2020-Jan-19 16:20 099 2 gusting 7 9.4
2020-Jan-19 16:15 049 1 gusting 7 9.4
2020-Jan-19 16:10 044 1 gusting 10 9.4
2020-Jan-19 16:05 039 6 gusting 10 9.4
2020-Jan-19 16:00 079 4 gusting 10 9.4
2020-Jan-19 15:55 054 0 gusting 10 9.4
2020-Jan-19 15:50 076 4 gusting 12 9.4
2020-Jan-19 15:45 061 2 gusting 12 9.4
2020-Jan-19 15:40 041 4 gusting 11 9.4
2020-Jan-19 15:35 069 4 gusting 11 9.4
2020-Jan-19 15:30 049 4 gusting 14 9.4
2020-Jan-19 15:25 113 6 gusting 14 10.0
2020-Jan-19 15:20 074 0 gusting 7 10.0
2020-Jan-19 15:15 030 5 gusting 7 10.0
2020-Jan-19 15:10 049 2 gusting 11 10.0
2020-Jan-19 15:05 077 3 gusting 11 10.0
2020-Jan-19 15:00 046 0 gusting 13 10.0
2020-Jan-19 14:55 046 3 gusting 13 10.0
2020-Jan-19 14:50 092 2 gusting 9 10.0
2020-Jan-19 14:45 009 9 gusting 9 10.0
2020-Jan-19 14:40 082 7 gusting 13 10.0
2020-Jan-19 14:35 052 3 gusting 13 10.0
2020-Jan-19 14:30 015 3 gusting 13 10.6
2020-Jan-19 14:25 054 3 gusting 13 10.6
2020-Jan-19 14:20 103 4 gusting 15 10.6
2020-Jan-19 14:15 070 2 gusting 15 10.6
2020-Jan-19 14:10 080 6 gusting 9 10.6
2020-Jan-19 14:05 104 4 gusting 9 11.1
2020-Jan-19 14:00 060 2 gusting 12 11.1
2020-Jan-19 13:55 054 1 gusting 12 11.1
2020-Jan-19 13:50 043 1 gusting 13 11.1
2020-Jan-19 13:45 094 4 gusting 13 11.1
2020-Jan-19 13:40 042 2 gusting 15 11.1
2020-Jan-19 13:35 355 4 gusting 15 11.1
2020-Jan-19 13:30 076 6 gusting 13 11.1
2020-Jan-19 13:25 069 0 gusting 13 11.1
2020-Jan-19 13:20 098 8 gusting 13 11.1
2020-Jan-19 13:15 115 3 gusting 13 11.1
2020-Jan-19 13:10 069 8 gusting 13 11.1
2020-Jan-19 13:05 017 2 gusting 13 11.1
2020-Jan-19 13:00 051 1 gusting 19 11.7
2020-Jan-19 12:55 117 7 gusting 19 11.7
2020-Jan-19 12:50 061 6 gusting 9 11.7
2020-Jan-19 12:45 086 4 gusting 9 11.7
2020-Jan-19 12:40 065 2 gusting 10 11.7
2020-Jan-19 12:35 074 3 gusting 10 11.7
2020-Jan-19 12:30 046 2 gusting 11 11.7
2020-Jan-19 12:25 042 2 gusting 11 11.7
2020-Jan-19 12:20 009 3 gusting 11 11.7
2020-Jan-19 12:15 052 1 gusting 11 11.7
2020-Jan-19 12:10 028 3 gusting 11 11.7
2020-Jan-19 12:05 051 2 gusting 11 11.7
2020-Jan-19 12:00 022 10 gusting 16 11.1
2020-Jan-19 11:55 005 4 gusting 16 11.1
2020-Jan-19 11:50 078 8 gusting 15 11.1
2020-Jan-19 11:45 009 12 gusting 15 11.1
2020-Jan-19 11:40 033 4 gusting 13 11.7
2020-Jan-19 11:35 039 4 gusting 13 11.1
2020-Jan-19 11:30 015 4 gusting 8 11.1
2020-Jan-19 11:25 047 2 gusting 8 11.1
2020-Jan-19 11:20 014 6 gusting 12 11.7
2020-Jan-19 11:15 086 1 gusting 12 11.1
2020-Jan-19 11:10 014 1 gusting 13 11.1
2020-Jan-19 11:05 061 9 gusting 13 11.1
2020-Jan-19 11:00 041 2 gusting 11 11.1
2020-Jan-19 10:55 005 1 gusting 11 10.6
2020-Jan-19 10:50 017 2 gusting 8 10.6
2020-Jan-19 10:45 026 1 gusting 8 10.6
2020-Jan-19 10:40 068 2 gusting 6 10.6
2020-Jan-19 10:35 044 6 gusting 6 10.6
2020-Jan-19 10:30 041 2 gusting 9 10.0
2020-Jan-19 10:25 010 6 gusting 9 10.0
2020-Jan-19 10:20 100 0 gusting 4 10.0
2020-Jan-19 10:15 101 9 gusting 4 9.4
2020-Jan-19 10:10 073 1 gusting 2 8.9
2020-Jan-19 10:05 136 8.9
2020-Jan-19 10:00 136 2 gusting 3 8.3
2020-Jan-19 09:55 136 0 gusting 3 7.8
2020-Jan-19 09:50 136 7.8
2020-Jan-19 09:45 134 0 gusting 3 7.2
2020-Jan-19 09:40 132 0 7.2
2020-Jan-19 09:35 147 6.7
2020-Jan-19 09:30 147 6.7
2020-Jan-19 09:25 147 6.7
2020-Jan-19 09:20 143 6.7
2020-Jan-19 09:15 143 6.1
2020-Jan-19 09:10 143 5.6
2020-Jan-19 09:05 143 5.0
2020-Jan-19 09:00 143 5.0
2020-Jan-19 08:55 143 4.4
2020-Jan-19 08:50 143 3.9
2020-Jan-19 08:45 148 3.9
2020-Jan-19 08:40 154 2 gusting 3 3.9
2020-Jan-19 08:35 159 1 gusting 3 3.3
2020-Jan-19 08:30 142 1 gusting 4 3.3
2020-Jan-19 08:25 115 2 gusting 4 3.3
2020-Jan-19 08:20 115 2.8
2020-Jan-19 08:15 149 0 gusting 4 2.8
2020-Jan-19 08:10 151 3 gusting 5 2.8
2020-Jan-19 08:05 146 3 gusting 5 2.8
2020-Jan-19 08:00 135 2 gusting 4 2.2
2020-Jan-19 07:55 155 4 gusting 4 2.2
2020-Jan-19 07:50 151 2 gusting 4 2.2
2020-Jan-19 07:45 150 2 gusting 4 2.2
2020-Jan-19 07:40 142 3 gusting 3 1.7
2020-Jan-19 07:35 148 2 gusting 3 1.7
2020-Jan-19 07:30 142 2 gusting 4 1.7
2020-Jan-19 07:25 140 1.7
2020-Jan-19 07:20 140 1.7
2020-Jan-19 07:15 140 2 gusting 5 1.1
2020-Jan-19 07:10 139 1 gusting 4 1.1
2020-Jan-19 07:05 142 1 gusting 4 1.1
2020-Jan-19 07:00 137 4 gusting 4 1.1
2020-Jan-19 06:55 148 2 gusting 4 1.1
2020-Jan-19 06:50 148 2 1.1
2020-Jan-19 06:45 149 1 1.1
2020-Jan-19 06:40 149 1.1
2020-Jan-19 06:35 149 1.1
2020-Jan-19 06:30 149 1.1
2020-Jan-19 06:25 149 0.6
2020-Jan-19 06:20 149 0.6
2020-Jan-19 06:15 149 1.1
2020-Jan-19 06:10 149 1.1
2020-Jan-19 06:05 149 1.1
2020-Jan-19 06:00 149 1.1